Highgate, VT

8:12 PM EST on November 11, 2019 (GMT -0500)
Franklin County State

Weather History for KFSO - September, 2019

Change the Weather History Date:

Friday, September 20, 2019

  Actual Average (KPBG) Record (KPBG)
Temperature  
Mean Temperature 63 °F -  
Max Temperature 78 °F 68 °F 93 °F (1983)
Min Temperature 48 °F 47 °F 28 °F (1979)
Degree Days  
Heating Degree Days 2    
Growing Degree Days 13 (Base 50)    
Moisture  
Dew Point 52 °F    
Average Humidity 74    
Maximum Humidity 96    
Minimum Humidity 44    
Precipitation  
Precipitation 0.00 in - - ()
Sea Level Pressure  
Sea Level Pressure 30.18 in    
Wind  
Wind Speed 3 mph (South)    
Max Wind Speed 6 mph    
Max Gust Speed -    
Visibility 10 miles    
Events      
Averages and records for this station are not official NWS values.
T = Trace of Precipitation, MM = Missing Value Source: NWS Daily Summary

Daily Weather History Graph

Daily Weather History Graph

Search for Another Location

Airport or City:

Astronomy

Sep. 20, 2019 Rise Set
Actual Time 6:36 AM EDT 6:54 PM EDT
Civil Twilight 6:07 AM EDT 7:23 PM EDT
Nautical Twilight 5:32 AM EDT 7:57 PM EDT
Astronomical Twilight 4:57 AM EDT 8:33 PM EDT
Moon 10:26 PM EDT (9/20) 12:53 PM EDT (9/20)
Length of Visible Light 13h 15m
Length of Day
12h 17m
Waning Gibbous, 65% of the Moon is Illuminated
Sep 20
Waning Gibbous
Sep 21
Last Quarter
Sep 28
New
Oct 5
First Quarter
Oct 13
Full

Hourly Weather History & Observations

Time (EDT) Temp. Dew Point Humidity Pressure Visibility Wind Dir Wind Speed Gust Speed Precip Events Conditions
12:16 AM 50.9 °F 48.2 °F 90% 30.22 in 10.0 mi SSE 3.5 mph - N/A   Clear
12:35 AM 50.4 °F 47.8 °F 91% 30.22 in 10.0 mi SE 3.5 mph - N/A   Clear
12:56 AM 50.0 °F 47.5 °F 91% 30.22 in 10.0 mi SSE 3.5 mph - N/A   Clear
1:15 AM 50.0 °F 47.7 °F 92% 30.22 in 10.0 mi SE 3.5 mph - N/A   Clear
1:36 AM 50.0 °F 47.8 °F 92% 30.22 in 10.0 mi Calm Calm - N/A   Clear
1:55 AM 50.0 °F 47.7 °F 92% 30.22 in 10.0 mi SSE 3.5 mph - N/A   Clear
2:16 AM 50.0 °F 47.8 °F 92% 30.22 in 10.0 mi SE 3.5 mph - N/A   Clear
2:36 AM 50.2 °F 48.0 °F 92% 30.21 in 10.0 mi SSE 4.6 mph - N/A   Clear
2:55 AM 50.0 °F 47.3 °F 90% 30.21 in 10.0 mi SSE 3.5 mph - N/A   Clear
3:16 AM 49.6 °F 47.1 °F 91% 30.22 in 10.0 mi South 3.5 mph - N/A   Clear
3:35 AM 49.8 °F 47.1 °F 90% 30.21 in 10.0 mi South 3.5 mph - N/A   Clear
3:56 AM 52.9 °F 46.6 °F 79% 30.21 in 10.0 mi SSW 3.5 mph - N/A   Clear
4:15 AM 53.6 °F 46.0 °F 76% 30.21 in 10.0 mi South 4.6 mph - N/A   Clear
4:35 AM 53.2 °F 45.7 °F 76% 30.21 in 10.0 mi South 4.6 mph - N/A   Clear
4:55 AM 50.9 °F 46.4 °F 85% 30.21 in 10.0 mi South 4.6 mph - N/A   Clear
5:16 AM 50.9 °F 45.9 °F 83% 30.21 in 10.0 mi South 3.5 mph - N/A   Clear
5:36 AM 49.5 °F 45.7 °F 87% 30.21 in 10.0 mi South 3.5 mph - N/A   Clear
5:55 AM 50.2 °F 45.9 °F 85% 30.22 in 10.0 mi SSE 3.5 mph - N/A   Clear
6:16 AM 48.9 °F 45.5 °F 88% 30.22 in 10.0 mi SSE 3.5 mph - N/A   Clear
6:35 AM 49.3 °F 46.4 °F 90% 30.22 in 10.0 mi SSE 4.6 mph - N/A   Clear
6:55 AM 49.1 °F 46.4 °F 90% 30.23 in 10.0 mi SE 4.6 mph - N/A   Clear
7:15 AM 48.6 °F 46.6 °F 93% 30.23 in 10.0 mi SSE 3.5 mph - N/A   Clear
7:35 AM 50.9 °F 48.2 °F 90% 30.23 in 10.0 mi Calm Calm - N/A   Clear
7:56 AM 52.5 °F 49.1 °F 88% 30.23 in 10.0 mi SSE 3.5 mph - N/A   Clear
8:16 AM 54.9 °F 49.3 °F 81% 30.24 in 10.0 mi Calm Calm - N/A   Clear
8:35 AM 58.5 °F 48.4 °F 69% 30.24 in 10.0 mi South 4.6 mph - N/A   Clear
8:56 AM 59.2 °F 48.6 °F 68% 30.24 in 10.0 mi South 3.5 mph - N/A   Clear
9:16 AM 60.1 °F 48.2 °F 65% 30.24 in 10.0 mi SSW 5.8 mph - N/A   Clear
9:36 AM 60.3 °F 48.4 °F 65% 30.24 in 10.0 mi South 4.6 mph - N/A   Clear
9:56 AM 61.0 °F 49.1 °F 65% 30.24 in 10.0 mi SSW 4.6 mph - N/A   Clear
10:15 AM 63.5 °F 49.6 °F 61% 30.23 in 10.0 mi Calm Calm - N/A   Clear
10:36 AM 64.8 °F 50.0 °F 59% 30.23 in 10.0 mi SSW 3.5 mph - N/A   Clear
10:55 AM 66.2 °F 50.9 °F 58% 30.22 in 10.0 mi SSW 4.6 mph - N/A   Clear
11:15 AM 68.0 °F 51.6 °F 56% 30.21 in 10.0 mi South 4.6 mph - N/A   Clear
11:35 AM 68.7 °F 51.4 °F 54% 30.20 in 10.0 mi SSW 5.8 mph - N/A   Clear
11:56 AM 70.5 °F 52.0 °F 52% 30.20 in 10.0 mi South 4.6 mph - N/A   Clear
12:15 PM 72.1 °F 52.3 °F 50% 30.19 in 10.0 mi Calm Calm - N/A   Clear
12:35 PM 70.3 °F 52.5 °F 53% 30.18 in 10.0 mi SSW 3.5 mph - N/A   Clear
12:55 PM 73.2 °F 54.7 °F 52% 30.18 in 10.0 mi SW 3.5 mph - N/A   Clear
1:16 PM 73.8 °F 54.7 °F 51% 30.17 in 10.0 mi WSW 5.8 mph - N/A   Clear
1:36 PM 74.8 °F 54.1 °F 48% 30.17 in 10.0 mi SSW 5.8 mph - N/A   Clear
1:56 PM 75.0 °F 54.3 °F 48% 30.16 in 10.0 mi SW 3.5 mph - N/A   Clear
2:15 PM 75.2 °F 54.9 °F 49% 30.15 in 10.0 mi South 3.5 mph - N/A   Clear
2:35 PM 74.8 °F 54.9 °F 50% 30.15 in 10.0 mi WSW 3.5 mph - N/A   Clear
2:56 PM 76.1 °F 54.3 °F 47% 30.14 in 10.0 mi South 4.6 mph - N/A   Clear
3:16 PM 77.0 °F 54.9 °F 46% 30.13 in 10.0 mi SSW 3.5 mph - N/A   Clear
3:36 PM 77.2 °F 55.6 °F 47% 30.13 in 10.0 mi SW 3.5 mph - N/A   Clear
3:55 PM 78.1 °F 54.7 °F 44% 30.13 in 10.0 mi Calm Calm - N/A   Clear
4:16 PM 73.8 °F 57.7 °F 57% 30.13 in 10.0 mi Calm Calm - N/A   Clear
4:35 PM 76.3 °F 57.0 °F 51% 30.12 in 10.0 mi Calm Calm - N/A   Clear
4:56 PM 77.4 °F 55.0 °F 46% 30.12 in 10.0 mi Calm Calm - N/A   Clear
5:15 PM 77.0 °F 56.3 °F 49% 30.12 in 10.0 mi Calm Calm - N/A   Clear
5:36 PM 76.1 °F 56.8 °F 51% 30.12 in 10.0 mi Calm Calm - N/A   Clear
5:55 PM 74.5 °F 59.0 °F 58% 30.11 in 10.0 mi South 3.5 mph - N/A   Clear
6:15 PM 72.5 °F 57.7 °F 60% 30.12 in 10.0 mi Calm Calm - N/A   Clear
6:35 PM 68.9 °F 58.5 °F 69% 30.12 in 10.0 mi Calm Calm - N/A   Clear
6:56 PM 66.2 °F 58.1 °F 75% 30.13 in 10.0 mi Calm Calm - N/A   Clear
7:16 PM 64.9 °F 58.5 °F 79% 30.14 in 10.0 mi Calm Calm - N/A   Clear
7:36 PM 62.8 °F 59.0 °F 87% 30.14 in 10.0 mi Calm Calm - N/A   Clear
7:55 PM 62.1 °F 59.4 °F 91% 30.15 in 10.0 mi Calm Calm - N/A   Clear
8:16 PM 60.8 °F 57.6 °F 89% 30.15 in 10.0 mi Calm Calm - N/A   Clear
8:36 PM 59.7 °F 57.0 °F 91% 30.14 in 10.0 mi Calm Calm - N/A   Clear
8:56 PM 60.4 °F 59.0 °F 95% 30.14 in 10.0 mi Calm Calm - N/A   Clear
9:15 PM 59.2 °F 57.7 °F 95% 30.14 in 10.0 mi Calm Calm - N/A   Clear
9:35 PM 59.2 °F 58.1 °F 96% 30.15 in 10.0 mi Calm Calm - N/A   Clear
9:55 PM 58.6 °F 57.4 °F 96% 30.15 in 10.0 mi Calm Calm - N/A   Clear
10:15 PM 58.5 °F 57.2 °F 96% 30.15 in 10.0 mi Calm Calm - N/A   Scattered Clouds
10:36 PM 58.8 °F 57.4 °F 95% 30.16 in 10.0 mi Calm Calm - N/A   Mostly Cloudy
10:56 PM 58.1 °F 56.8 °F 96% 30.16 in 10.0 mi Calm Calm - N/A   Scattered Clouds
11:15 PM 57.7 °F 56.5 °F 96% 30.16 in 10.0 mi Calm Calm - N/A   Clear
11:36 PM 57.6 °F 56.1 °F 95% 30.16 in 10.0 mi Calm Calm - N/A   Scattered Clouds
11:55 PM 58.1 °F 56.5 °F 94% 30.16 in 10.0 mi Calm Calm - N/A   Scattered Clouds